Weather History for Olathe, KS

Change the Weather History Date:

Friday, December 7, 2012

  Actual Average Record
Temperature  
Mean Temperature 47 °F 34 °F  
Max Temperature 50 °F 43 °F 70 °F (1966)
Min Temperature 43 °F 26 °F 0 °F (1950)
Degree Days  
Heating Degree Days 18 31  
Month to date heating degree days 91 206  
Since 1 July heating degree days 1022 1161  
Cooling Degree Days 0 0  
Month to date cooling degree days 0 0  
Year to date cooling degree days 1831 1349  
Moisture  
Dew Point 42 °F    
Average Humidity 88    
Maximum Humidity 96    
Minimum Humidity 80    
Precipitation  
Precipitation T in 0.05 in 1.20 in (1986)
Month to date precipitation T 0.38  
Year to date precipitation 24.27 38.78  
Sea Level Pressure  
Sea Level Pressure 29.89 in    
Wind  
Wind Speed 6 mph (NNE)    
Max Wind Speed 14 mph    
Max Gust Speed 16 mph    
Visibility 5 miles    
Events      
T = Trace of Precipitation, MM = Missing Value Source: NWS Daily Summary

Daily Weather History Graph

Daily Weather History Graph

Search for Another Location

Airport:

Trip Planner

Search our weather history database for the weather conditions in past years. The results will help you decide how hot, cold, wet, or windy it might be!

Date:

Astronomy

Dec. 07, 2012 Rise Set
Actual Time 7:24 AM CST 4:56 PM CST
Civil Twilight 6:54 AM CST 5:26 PM CST
Nautical Twilight 6:21 AM CST 5:59 PM CST
Astronomical Twilight 5:49 AM CST 6:32 PM CST
Moon 12:47 AM CST (12/7) 12:51 PM CST (12/7)
Length of Visible Light 10h 31m
Length of Day
9h 32m
Last Quarter, 38% of the Moon is Illuminated
Dec 7
Last Quarter
Dec 13
New
Dec 19
First Quarter
Dec 28
Full
Jan 4
Last Quarter

Hourly Weather History & Observations

Time (CST) Temp. Windchill Dew Point Humidity Pressure Visibility Wind Dir Wind Speed Gust Speed Precip Events Conditions
12:53 AM 46.0 °F 42.5 °F 43.0 °F 89% 29.90 in 6.0 mi North 6.9 mph - N/A   Overcast
1:00 AM 46.4 °F 43.5 °F 42.8 °F 87% 29.89 in 6.0 mi NNE 5.8 mph - N/A   Overcast
1:11 AM 46.4 °F 42.9 °F 42.8 °F 87% 29.89 in 7.0 mi NNE 6.9 mph - N/A   Overcast
1:27 AM 46.4 °F 43.5 °F 42.8 °F 87% 29.89 in 8.0 mi NNE 5.8 mph - N/A   Overcast
1:53 AM 46.0 °F 41.9 °F 43.0 °F 89% 29.90 in 6.0 mi North 8.1 mph - N/A   Overcast
2:03 AM 46.4 °F 42.4 °F 42.8 °F 87% 29.89 in 6.0 mi NNE 8.1 mph - N/A   Overcast
2:53 AM 45.0 °F 40.6 °F 43.0 °F 93% 29.90 in 5.0 mi North 8.1 mph - N/A   Overcast
3:08 AM 44.6 °F 40.2 °F 42.8 °F 93% 29.90 in 5.0 mi NNE 8.1 mph - N/A   Overcast
3:53 AM 45.0 °F 40.6 °F 43.0 °F 93% 29.89 in 4.0 mi NNE 8.1 mph - 0.00 in   Overcast
4:53 AM 44.1 °F 39.0 °F 42.1 °F 93% 29.89 in 4.0 mi NNE 9.2 mph - N/A   Overcast
5:53 AM 44.1 °F 38.6 °F 42.1 °F 93% 29.88 in 4.0 mi NNE 10.4 mph - N/A   Overcast
6:53 AM 43.0 °F 38.8 °F 41.0 °F 93% 29.90 in 5.0 mi NE 6.9 mph - N/A   Overcast
7:53 AM 43.0 °F 40.3 °F 41.0 °F 93% 29.90 in 4.0 mi ENE 4.6 mph - N/A   Overcast
8:53 AM 44.1 °F 41.5 °F 41.0 °F 89% 29.91 in 3.0 mi ENE 4.6 mph - N/A   Overcast
9:53 AM 45.0 °F 42.6 °F 42.1 °F 90% 29.90 in 4.0 mi ENE 4.6 mph - N/A   Overcast
10:53 AM 46.9 °F - 42.1 °F 83% 29.90 in 5.0 mi ENE 4.6 mph - N/A   Haze
11:53 AM 46.9 °F - 42.1 °F 83% 29.88 in 5.0 mi Calm Calm - N/A   Haze
12:24 PM 46.4 °F 42.9 °F 42.8 °F 87% 29.85 in 4.0 mi East 6.9 mph - N/A   Haze
12:53 PM 48.0 °F - 42.1 °F 80% 29.85 in 5.0 mi East 3.5 mph - N/A   Haze
1:45 PM 48.2 °F - 42.8 °F 82% 29.83 in 5.0 mi Calm Calm - N/A   Haze
1:53 PM 48.9 °F - 42.1 °F 77% 29.84 in 5.0 mi Calm Calm - N/A   Haze
2:23 PM 48.2 °F - 42.8 °F 82% 29.84 in 5.0 mi Calm Calm - N/A   Haze
2:53 PM 48.9 °F - 42.1 °F 77% 29.85 in 4.0 mi NNE 3.5 mph - N/A   Haze
3:53 PM 48.0 °F - 42.1 °F 80% 29.86 in 4.0 mi NNE 5.8 mph - N/A   Haze
4:53 PM 46.9 °F - 41.0 °F 80% 29.87 in 3.0 mi NNE 6.9 mph - N/A   Haze
5:37 PM 46.4 °F 42.9 °F 41.0 °F 81% 29.87 in 5.0 mi NNE 6.9 mph - N/A   Haze
5:53 PM 46.0 °F 43.9 °F 41.0 °F 83% 29.88 in 5.0 mi NNE 4.6 mph - N/A   Haze
7:02 PM 46.4 °F 41.9 °F 42.8 °F 87% 29.87 in 4.0 mi NNE 9.2 mph - N/A   Overcast
7:53 PM 45.0 °F 40.6 °F 41.0 °F 86% 29.90 in 5.0 mi North 8.1 mph - N/A   Overcast
8:38 PM 44.6 °F 41.4 °F 41.0 °F 87% 29.90 in 6.0 mi North 5.8 mph - N/A   Mostly Cloudy
8:53 PM 45.0 °F 41.8 °F 41.0 °F 86% 29.91 in 6.0 mi NNE 5.8 mph - N/A   Overcast
9:53 PM 43.0 °F 41.3 °F 41.0 °F 93% 29.90 in 5.0 mi SE 3.5 mph - 0.00 in   Mostly Cloudy
10:26 PM 42.8 °F - 41.0 °F 93% 29.92 in 5.0 mi Calm Calm - N/A   Overcast
10:37 PM 44.6 °F 43.1 °F 41.0 °F 87% 29.92 in 5.0 mi North 3.5 mph - N/A   Overcast
10:45 PM 44.6 °F 43.1 °F 41.0 °F 87% 29.92 in 5.0 mi North 3.5 mph - N/A   Overcast
10:53 PM 44.1 °F 42.5 °F 41.0 °F 89% 29.93 in 5.0 mi North 3.5 mph - N/A   Overcast
11:04 PM 44.6 °F 43.1 °F 41.0 °F 87% 29.92 in 5.0 mi North 3.5 mph - N/A   Overcast
11:43 PM 42.8 °F 41.1 °F 39.2 °F 87% 29.93 in 7.0 mi NNW 3.5 mph - N/A   Mostly Cloudy
11:53 PM 43.0 °F 41.3 °F 39.0 °F 86% 29.94 in 7.0 mi NNW 3.5 mph - N/A   Partly Cloudy